Regional Weather Roundup
Issued by NWS

Home | Current Version | Previous Version | Text Only | Print | Product List | Glossary Off
Versions: 1 2 3 4 5 6 7 8 9 10 11 12 13 14 15 16 17 18 19 20 21 22 23 24 25 26 27 28 29 30 31 32 33 34 35 36 37 38 39 40 41 42 43 44 45 46 47 48 49 50

000
ASUS45 KBOU 231907
RWRCO

WEATHER ROUNDUP FOR COLORADO
NATIONAL WEATHER SERVICE DENVER/BOULDER CO
100 PM MDT SAT MAY 23 2015

NOTE: "FAIR" INDICATES FEW OR NO CLOUDS BELOW 12000 FEET WITH NO
SIGNIFICANT WEATHER AND/OR OBSTRUCTIONS TO VISIBILITY.

COZ001>005-013-030-031-232000-
...NORTHWEST COLORADO...

CITY           SKY/WX    TMP DP  RH WIND       PRES   REMARKS
CRAIG          PTSUNNY   54  38  54 W17G25    29.96F
HAYDEN         PTSUNNY   52  34  50 W17G24    29.94F
MEEKER         LGT RAIN  50  36  58 MISG      29.99R
MOUNT WERNER   NOT AVBL
STEAMBOAT SPGS CLOUDY    52  36  54 W13       29.93S
WALDEN         MOSUNNY   54  28  37 SE22G28   29.99F
$$

COZ006>008-011-232000-
...WEST CENTRAL VALLEYS...

CITY           SKY/WX    TMP DP  RH WIND       PRES   REMARKS
GRAND JUNCTION PTSUNNY   61  25  25 CALM      29.92F
MONTROSE       TSTM      50  33  52 SW20G28   30.00R
EAGLE          MOSUNNY   57  34  41 S8        29.95S
RIFLE          PTSUNNY   58  37  45 NE9       29.94F
DELTA          CLOUDY    58  35  41 MISG      29.98R THUNDER
NUCLA          LGT RAIN  45  37  76 NE13      30.04S
$$

COZ017>023-064>068-232000-
...SOUTHWEST COLORADO...

CITY           SKY/WX    TMP DP  RH WIND       PRES   REMARKS
DURANGO        MOSUNNY   57  24  28 S14G22    30.03F
CORTEZ         MOSUNNY   59  31  34 S13G21    30.02F
PAGOSA SPRINGS PTSUNNY   53  19  26 SW14G23   30.05F
TELLURIDE      CLOUDY    40  29  66 S3        30.10S
WOLF CREEK PAS NOT AVBL
$$

COZ009-010-012-014-032>034-037-058>063-232000-
...CENTRAL COLORADO...

CITY           SKY/WX    TMP DP  RH WIND       PRES   REMARKS
ASPEN          PTSUNNY   51  29  42 SE18G26   29.98F
BUENA VISTA    PTSUNNY   50  35  57 SE15      30.02F
COPPER MTN     PTSUNNY   39  21  48 E17G25    30.12F
BERTHOUD PASS  CLOUDY    27  19  74 MISG      30.18F HAZE
COTTONWOOD PAS CLOUDY    46  34  61 E10       30.07F
GUNNISON       PTSUNNY   52  28  40 SW18G24   30.02S
KREMMLING      PTSUNNY   59  32  36 E16       29.96F THUNDER
LEADVILLE      FLURRIES  37  30  75 SW12      30.05F
SALIDA         PTSUNNY   53  38  56 NE6       30.08F
SUNLIGHT       CLOUDY    36  32  87 SW3       30.12F THUNDER
WILKERSON PASS PTSUNNY   37  30  75 S6        30.16F
$$

COZ069>075-232000-
...SAN LUIS VALLEY/SANGRE DE CRISTO MOUNTAINS...

CITY           SKY/WX    TMP DP  RH WIND       PRES   REMARKS
ALAMOSA        PTSUNNY   57  23  26 S17G28    30.01F
LA VETA PASS   MOSUNNY  N/A N/A N/A MISG      30.10F
SAGUACHE       PTSUNNY   46  34  61 NW12      30.04S
$$

COZ035-036-038>040-232000-
...NORTHERN COLORADO FRONT RANGE...

CITY           SKY/WX    TMP DP  RH WIND       PRES   REMARKS
DENVER INTL AP TSTM      58  49  72 E7        29.94F
DMNS CITY PARK   N/A     57  49  74 NE12      29.92F
AURORA         HAIL      52  50  93 SE10      29.95F
FRONT RANGE AP PTSUNNY   59  52  77 E10G16    29.96F
ERIE MUNI ARPT CLOUDY    57  50  77 N8        29.95F
BOULDER MUN AP TSTM      50  46  87 W13G23    29.97S
CENTENNIAL     CLOUDY    58  46  64 SE18G25   29.95F THUNDER
BROOMFIELD     LGT RAIN  57  50  77 NW7       29.97F
FORT COLLINS   PTSUNNY   55  46  71 NW5       29.98F
LONGMONT       CLOUDY    58  49  72 CALM      29.98F
$$

COZ041-046-047-076>085-087-088-232000-
...PIKES PEAK/PALMER DIVIDE AND SOUTHERN FOOTHILLS...

CITY           SKY/WX    TMP DP  RH WIND       PRES   REMARKS
COLO. SPRINGS  TSTM      51  49  92 SE5       29.98F
A. F. ACADEMY  CLOUDY    54  41  62 E7        29.97F THUNDER
ELLICOTT       NOT AVBL
FALCON         TSTM      46  39  78 NW5       30.02F
FORT CARSON    PTSUNNY   54  52  92 SE12      29.95F
LIMON          CLOUDY    59  47  64 SE18      29.97F
MONUMENT HILL  NOT AVBL
TRINIDAD       PTSUNNY   61  44  53 SW17      29.93F
$$

COZ042>045-048>051-090-091-232000-
...NORTHEAST COLORADO...

CITY           SKY/WX    TMP DP  RH WIND       PRES   REMARKS
GREELEY ARPT   PTSUNNY   59  48  67 CALM      29.96F
AKRON          CLOUDY    64  51  62 S13       29.95F
BURLINGTON     PTSUNNY   65  52  62 S22       29.97F
WRAY           CLOUDY    65  55  69 E14       29.99F
STERLING       CLOUDY    61  55  82 N7        29.94F
HOLYOKE        NOT AVBL
FORT MORGAN    PTSUNNY   59  50  70 CALM      29.96F
$$

COZ086-089-092>099-232000-
...SOUTHEAST COLORADO...

CITY           SKY/WX    TMP DP  RH WIND       PRES   REMARKS
PUEBLO         PTSUNNY   56  53  90 E12       29.90F
LA JUNTA       MOSUNNY   69  53  56 SE18      29.89F
LAMAR          CLOUDY    66  53  63 SE18      29.92F
SPRINGFIELD      N/A     65  55  70 S16       29.95F
$$



USA.gov is the U.S. government's official web portal to all federal, state and local government web resources and services.